カタログに戻る

STARLINK-5125

運用中通信VLEO
NORAD 53994·PAYLOAD·🇺🇸 United States

打ち上げ Oct 5, 2022 から Vandenberg Space Force Base

Loading…

次のパス (今後24時間)

TLE

最新Source: CelesTrak SupGP

元期: Sep 14, 2026, 22:18 UTC

1 53994C 22125AG  26257.92965278  .00760940  00000+0  35170-1 0  2571
2 53994  53.1597  83.5629 0001228  85.0703  37.0013 15.19278446    13

AllMySatでSTARLINK-5125をリアルタイム追跡

Download on the App Store